TimeEDT,TemperatureF,Dew PointF,Humidity,Sea Level PressureIn,VisibilityMPH,Wind Direction,Wind SpeedMPH,Gust SpeedMPH,PrecipitationIn,Events,Conditions,WindDirDegrees,DateUTC
12:54 AM,55.9,52.0,87,29.95,10.0,South,6.9,-,N/A,,Partly Cloudy,170,2013-04-30 04:54:00
1:54 AM,55.9,52.0,87,29.96,10.0,South,9.2,-,N/A,,Scattered Clouds,170,2013-04-30 05:54:00
2:54 AM,55.9,52.0,87,29.96,8.0,South,9.2,-,N/A,,Mostly Cloudy,180,2013-04-30 06:54:00
3:54 AM,55.0,51.1,86,29.96,8.0,South,8.1,-,N/A,,Mostly Cloudy,180,2013-04-30 07:54:00
4:54 AM,53.1,50.0,89,29.96,8.0,SSE,8.1,-,N/A,,Scattered Clouds,160,2013-04-30 08:54:00
5:54 AM,52.0,50.0,93,29.96,6.0,SSE,5.8,-,N/A,,Partly Cloudy,150,2013-04-30 09:54:00
6:54 AM,50.0,48.9,96,29.97,4.0,SSE,6.9,-,N/A,,Scattered Clouds,160,2013-04-30 10:54:00
7:54 AM,54.0,51.1,90,29.99,5.0,SSE,10.4,-,N/A,,Scattered Clouds,150,2013-04-30 11:54:00
8:54 AM,57.9,53.1,84,30.00,8.0,SSE,10.4,-,N/A,,Scattered Clouds,160,2013-04-30 12:54:00
9:54 AM,63.0,55.0,75,30.01,10.0,SSE,10.4,-,N/A,,Scattered Clouds,160,2013-04-30 13:54:00
10:54 AM,66.0,55.9,70,30.00,10.0,South,17.3,20.7,N/A,,Mostly Cloudy,180,2013-04-30 14:54:00
11:54 AM,69.1,57.0,65,30.00,10.0,South,15.0,21.9,N/A,,Mostly Cloudy,180,2013-04-30 15:54:00
12:54 PM,72.0,57.0,59,30.01,10.0,South,13.8,19.6,N/A,,Mostly Cloudy,180,2013-04-30 16:54:00
1:54 PM,73.0,59.0,61,29.99,10.0,South,13.8,-,N/A,,Mostly Cloudy,170,2013-04-30 17:54:00
2:54 PM,75.0,60.1,60,29.99,10.0,SSE,13.8,-,N/A,,Mostly Cloudy,160,2013-04-30 18:54:00
3:54 PM,75.9,61.0,60,29.98,10.0,South,15.0,-,N/A,,Mostly Cloudy,170,2013-04-30 19:54:00
4:54 PM,77.0,61.0,58,29.96,10.0,SSE,12.7,-,N/A,,Mostly Cloudy,160,2013-04-30 20:54:00
5:54 PM,75.9,61.0,60,29.97,10.0,SSE,13.8,-,N/A,,Mostly Cloudy,160,2013-04-30 21:54:00
6:54 PM,75.9,60.1,58,29.99,10.0,South,16.1,-,N/A,,Mostly Cloudy,170,2013-04-30 22:54:00
7:54 PM,73.9,59.0,59,30.00,10.0,SSE,8.1,-,N/A,,Mostly Cloudy,150,2013-04-30 23:54:00
8:54 PM,69.1,57.0,65,30.01,10.0,SSE,9.2,-,N/A,,Mostly Cloudy,160,2013-05-01 00:54:00
9:54 PM,66.0,55.9,70,30.03,10.0,SSE,6.9,-,N/A,,Mostly Cloudy,150,2013-05-01 01:54:00
10:54 PM,66.0,55.0,68,30.04,10.0,SSE,6.9,-,N/A,,Mostly Cloudy,150,2013-05-01 02:54:00
11:54 PM,62.1,53.1,72,30.04,10.0,SSE,5.8,-,N/A,,Scattered Clouds,150,2013-05-01 03:54:00